Volver al catálogo

STARLINK-5900

ActivoComunicacionesVLEO
NORAD 55948·PAYLOAD·🇺🇸 United States

Lanzado Mar 17, 2023 desde Vandenberg Space Force Base

Loading…

Próximos Pases (próximas 24 horas)

TLE

ActualizadoSource: CelesTrak SupGP

Época: Sep 15, 2026, 01:26 UTC

1 55948C 23037AL  26258.06020833  .00016982  00000+0  14231-2 0  2587
2 55948  70.0007 147.1016 0003054 273.1450 180.7556 14.98325116    14

Sigue STARLINK-5900 en tiempo real con AllMySat

Download on the App Store